Showing default

GEN1A-2, 69005

AKA "GEN1A-2" on Space-Track | Orbit data source: Space-Track

GEN1A-2, 69005 is a payload satellite owned by Lynk (US) in SSO that was launched on Sun, 03 May 2026 UTC via an FALCON 9 launch vehicle from the Air Force Western Test Range (AFWTR). Payload-class satellites include a variety of spacecraft equipped with specific instruments for various scientific and technological missions. These include communications satellites like Starlink; space stations such as the ISS; scientific satellites like the Hubble; Earth observation satellites from companies like Planet Labs, Umbra, and HawkEye 360; GPS; miniature CubeSats for education and research; and military/defense satellites.

Loading next visibility...
Identifier
69005, 2026-100AB
Orbit
SSO
Country
Flag of USUS
Related business
Manufacturer
Lynk
Mission
Operational Commercial Communications
Bus & Motor
LYNK SHANNON, Unknown motor
Mass
~85 kg wet, ~85 kg dry
Launch date (UTC)
2026-05-03 (4 months ago)
Launch vehicle
FALCON 9
Launch site
Air Force Western Test Range (AFWTR)
Object type
Payload
Rocket body
Debris
Shape & HBR
Box, 1.0 m
Radar Cross Section
0.650 m², Medium (>0.1 m² and < 1m²)

Expand to show TLE details & history
Last TLE update: 22 hours ago

TLE from 22 hours ago
0 GEN1A-2
1 69005U 26100AB  26237.25982462  .00003011  00000-0  14010-3 0  9991
2 69005  97.3938 133.7941 0006521 124.1387 236.0468 15.20689872 17318
Epoch: 2026-08-25T06:14Z
TLE epoch observation values (Epoch: 2026-08-25T06:14:08.847Z)
Latitude
0.00001°
Longitude
66.7275°
Altitude
509.359 km
Speed
7.608 km/s
True Right ascension
08h 55m 10s
True Declination
0° 00' 00"
Sunlit
Object was in daylight at epoch
Visualization orbit readout
Latitude
Unknown
Longitude
Unknown
Altitude
Unknown
Speed
Unknown
Apparent Right ascension
Unknown
Apparent Declination
Unknown
Sunlit
N/A
Visualization observer readout
Local Sidereal Time
19:51:27
Azimuth
Unknown
Elevation
Unknown
Doppler factor
Unknown
Orbital elements
Apogee altitude
505.209 km
Perigee altitude
496.237 km
Semi-major axis
6,878.86 km
Eccentricity
0.00065
Inclination
97.3938°
RAAN
133.7941°
Arg. of periapsis
124.1387°
True anomaly
235.98484°
Mean anomaly
236.0468°
Eccentric anomaly
236.01582°
Mean motion
3.80424 °/min
Orbital period
94.63 mins
BSTAR
0.0001401
Loading maneuver chart data...
Computing Atmospheric mass density...
Loading historical data...
Loading historical data...
Loading historical data...
Loading historical data...
Loading historical data...
Loading historical data...
Loading historical data...

Documentation

Showing up to 5 results
|